Showing default

IRIDIUM 123, 42804

Orbit data source: Space-Track

IRIDIUM 123, 42804 is a payload satellite owned by Iridium (US) in LEO that was launched on Sun, 25 Jun 2017 UTC via an FALCON 9 launch vehicle from the Air Force Western Test Range (AFWTR). Payloads include a variety of satellites, spacecraft, and rockets equipped with specific instruments for various scientific and technological missions. These include communications satellites like Starlink; space stations such as the ISS; scientific satellites like the Hubble; Earth observation satellites from companies like Planet Labs, Umbra, and HawkEye 360; GPS; miniature CubeSats for education and research; and military/defense satellites.

Loading next visibility...
IRIDIUM 123 details
Identifier
42804, 2017-039B
Orbit
LEO
Last TLE update13 hours ago
Origin
Flag of USIridium (US)
ManufacturerOATK SSG Gilbert
MissionOperational Commercial Communications
Bus & MotorELITEBUS, Unknown motor
Mass860 kg wet, 700 kg dry
Launch date (UTC)
2017-06-25 (8 years ago)
Launch vehicle
FALCON 9
Launch site
Air Force Western Test Range (AFWTR)
Object type
Payload
Rocket body
Debris
Shape & HBRTrap Box + 2 Pan, 9.4 m
Radar Cross Section14.423 m², Large (>1 m²)

Expand to show TLE details & history

TLE from 13 hours ago
0 IRIDIUM 123
1 42804U 17039B   24361.15725202  .00000347  00000-0  11696-3 0  9998
2 42804  86.3978 218.4387 0001725  87.3439 272.7954 14.34220335392831
Epoch: 2024-12-26T03:46Z
Definitive object data (Epoch: 2024-12-26T03:46:26.574Z)
Latitude-0.00005°
Longitude66.68729°
Altitude780.65 km
Speed7.464 km/s
True Right ascension14h 33m 45s
True Declination0° 00' 00"
Sunlit
Object was in daylight at TLE epoch
Visualization TLE readout
Latitude3.48385°
Longitude66.67222°
Altitude780.15 km
Speed7.464 km/s
Apparent Right ascension11h 53m 10s
Apparent Declination-43° 48' 35"
Sunlit
Object is in daylight
Visualization observer readout
Local Sidereal Time16:33:26
Azimuth224.563° SW
Elevation-14.802°
Doppler factor1
Orbital elements
Apogee altitude775.857 km
Perigee altitude773.389 km
Semi-major axis7,152.76 km
Eccentricity0.0001725
Inclination86.3978°
RAAN218.4387°
Arg. of periapsis87.3439°
True anomaly272.77566°
Mean anomaly272.7954°
Eccentric anomaly272.78553°
Mean motion3.58784 °/min
BSTAR0.00011696
Orbital period100.34 mins
Loading maneuver chart data...
Loading historical data...
Loading historical data...
Loading historical data...
Loading historical data...
Loading historical data...
Loading historical data...
Loading historical data...

IRIDIUM 123 Visibility forecast

Observer location: undefined°, undefined

Span
Click to sort rows by Start time (UTC) header in descending order
Start Az.
Max El. time (UTC)
Max El. Az.
Max El.
End time (UTC)
End Az.
8 mins2024-12-27 02:07:08.563Z19.729° NNE2024-12-27 02:11:08.563Z77.107° E28.692°2024-12-27 02:15:08.563Z140.08° SSE
6 mins2024-12-27 03:49:08.563Z319.656° NNW2024-12-27 03:52:08.563Z271.717° WNW23.663°2024-12-27 03:55:08.563Z229.377° WSW
8 mins2024-12-27 15:04:08.563Z170.138° S2024-12-27 15:07:08.563Z112.072° ESE43.462°2024-12-27 15:12:08.563Z7.11° NNE
|